Location: Krasnoyarskiy Pitomnik
(51.1333°N, 71.6167°E)
Time: 10:22:39
(UTC+00:00)

ATLAS 5 CENTAUR R/B - Pass Details

Date: 22 October 2021
Orbit: 497 x 1159 km, 63.4° (Epoch: 25 November)

Event Time Altitude Azimuth Distance (km) Brightness Sun altitude
Rises 15:07:41 0° 269° (W) 2,708 5.9 -28.8°
Reaches altitude 10° 15:10:04 10° 283° (WNW) 1,885 5.0 -29.2°
Maximum altitude 15:13:36 25° 340° (NNW) 1,271 3.5 -29.7°
Enters shadow 15:13:59 25° 348° (NNW) 1,291 3.4 -29.8°
